Location: Unspecified
(0.0000°N, 0.0000°E)
Time: 03:00:50
(UTC+00:00)

Explorer 11/Cluster Stage 4 - Pass Details

Date: 21 April 2026
Orbit: 463 x 1174 km, 28.8° (Epoch: 15 May)

Event Time Altitude Azimuth Distance (km) Brightness Sun altitude
Rises 18:30:50 0° 276° (W) 3,929 12.5 -7.9°
Reaches altitude 10° 18:34:19 10° 264° (W) 2,884 10.8 -8.7°
Maximum altitude 18:39:53 25° 211° (SSW) 1,849 8.7 -10.1°
Drops below altitude 10° 18:44:48 10° 158° (SSE) 2,501 8.8 -11.3°
Enters shadow 18:46:33 - 148° (SSE) 2,987 9.1 -11.7°
